Regional Weather Roundup
Issued by NWS State College, PA

Home | Current Version | Previous Version | Text Only | Print | Product List | Glossary On
Versions: 1 2 3 4 5 6 7 8 9 10 11 12 13 14 15 16 17 18 19 20 21 22 23 24 25 26 27 28 29 30 31 32 33 34 35 36 37 38 39 40 41 42 43 44 45 46 47 48 49 50
000
ASUS41 KCTP 040610
RWRCTP

REGIONAL WEATHER ROUNDUP
NATIONAL WEATHER SERVICE STATE COLLEGE PA
200 AM EDT TUE AUG 04 2015

Note: "fair" indicates few or no clouds below 12,000 feet with no
significant weather and/or obstructions to visibility.

* = STATION THAT DOES NOT REPORT PRECIPITATION /E.G. RAIN...SNOW...ETC/
    THUNDER OR FOG.

PAZ002>004-007>009-013>016-020>023-029>032-040700-
WESTERN PENNSYLVANIA

CITY           SKY/WX    TMP DP  RH WIND       PRES   REMARKS
ERIE           PTCLDY    65  60  84 S6        29.84S
MEADVILLE      CLEAR     63  59  87 SW3       29.88R
FRANKLIN*      PTCLDY    61  55  82 S5        29.89S
NEW CASTLE     MOCLDY    65  64  96 CALM      29.90R
BEAVER COUNTY  NOT AVBL
BUTLER*        PTCLDY    64  63  94 SW5       29.90S
PITTSBURGH INT PTCLDY    67  64  90 W8        29.88S
PITTSBURGH     MOCLDY    66  60  81 W3        29.87F
INDIANA*       CLOUDY    66  66 100 SW5       29.93R
LATROBE        NOT AVBL
WASHINGTON CO* NOT AVBL
$$

PAZ004>006-010>012-017>019-024>028-033>037-041-042-045-046-049>053-040700-
CENTRAL PENNSYLVANIA

CITY           SKY/WX    TMP DP  RH WIND       PRES   REMARKS
BRADFORD       PTCLDY    60  58  92 CALM      29.89R FOG
DUBOIS         MOCLDY    64  61  90 SW8       29.88R
CLEARFIELD     MOCLDY    65  61  87 S7        29.89R
JOHNSTOWN      LGT RAIN  63  61  93 SW6       29.93S
ALTOONA        TSTM      65  62  90 SW3       29.91S
STATE COLLEGE  MOCLDY    64  61  90 S6        29.87S
WILLIAMSPORT   CLOUDY    71  63  75 CALM      29.81S
SELINSGROVE    LGT RAIN  69  66  90 CALM      29.84S
FT INDIANTOWN  MOCLDY    68  61  78 S5        29.84F
CAPITAL CITY   PTCLDY    75  59  57 NW3       29.85R
HARRISBURG     CLOUDY    75  60  59 CALM      29.83R
YORK           PTCLDY    70  66  87 CALM      29.84R
$$

PAZ038>040-043-044-047-048-054-055-060>062-067>071-040700-
EASTERN PENNSYLVANIA

CITY           SKY/WX    TMP DP  RH WIND       PRES   REMARKS
SCRANTON       LGT RAIN  70  67  90 CALM      29.82F
MOUNT POCONO   MOCLDY    65  62  90 W3        29.88S
ALLENTOWN      MOCLDY    72  66  83 CALM      29.82S
QUAKERTOWN*    CLOUDY    68  66  94 W5        29.85F
READING        MOCLDY    73  63  70 CALM      29.82F
LANCASTER      MOCLDY    68  67  96 N3        29.84S
COATESVILLE    CLOUDY    70  68  94 CALM      29.85F
POTTSTOWN      TSTM      67  65  93 E5        29.84F
BLUE BELL      MOCLDY    70  66  88 W10G18    29.86R
DOYLESTOWN     TSTM      69  63  81 SW8G28    29.85R
WILLOW GROVE   NOT AVBL
NORTH PHILA    LGT RAIN  79  62  56 NW7G17    29.84R
PHILADELPHIA   MOCLDY    81  68  64 W6        29.84R
$$



USA.gov is the U.S. government's official web portal to all federal, state and local government web resources and services.